This is the latest recevied weather packets stored in our database for station/object DO1SN-13. If no packets are shown the sender has not sent any weather packets the latest 10 day(s).
| Time | Temp. | Humidity | Pressure | Rain* | Wind** | Luminosity | Snow |
|---|---|---|---|---|---|---|---|
| 1787619391 | 18.89° C | - | 1014.1 hPa | 0 mm | - | - | - |
| 1787619027 | 19.44° C | - | 1014.1 hPa | 0 mm | - | - | - |
| 1787618663 | 19.44° C | - | 1014.1 hPa | 0 mm | - | - | - |
| 1787618299 | 19.44° C | - | 1014.1 hPa | 0 mm | - | - | - |
| 1787617935 | 19.44° C | - | 1013.9 hPa | 0 mm | - | - | - |
| 1787617571 | 18.89° C | - | 1013.7 hPa | 0 mm | - | - | - |
| 1787617206 | 20° C | - | 1013.8 hPa | 0 mm | - | - | - |
| 1787616842 | 20° C | - | 1014.1 hPa | 0 mm | - | - | - |
| 1787616478 | 19.44° C | - | 1014.3 hPa | 0 mm | - | - | - |
| 1787616114 | 19.44° C | - | 1014.5 hPa | 0 mm | - | - | - |
| 1787615750 | 18.89° C | - | 1014.7 hPa | 0 mm | - | - | - |
| 1787615386 | 20° C | - | 1014.8 hPa | 0 mm | - | - | - |
| 1787615022 | 19.44° C | - | 1014.8 hPa | 0 mm | - | - | - |
| 1787614657 | 18.89° C | - | 1015 hPa | 0 mm | - | - | - |
| 1787614293 | 19.44° C | - | 1015.2 hPa | 0 mm | - | - | - |
| 1787613929 | 20° C | - | 1015.3 hPa | 0 mm | - | - | - |
| 1787613565 | 20.56° C | - | 1015.6 hPa | 0 mm | - | - | - |
| 1787613201 | 20° C | - | 1015.6 hPa | 0 mm | - | - | - |
| 1787612837 | 19.44° C | - | 1015.6 hPa | 0 mm | - | - | - |
| 1787612473 | 19.44° C | - | 1015.7 hPa | 0 mm | - | - | - |
| 1787612108 | 19.44° C | - | 1015.9 hPa | 0 mm | - | - | - |
| 1787611744 | 18.33° C | - | 1015.8 hPa | 0 mm | - | - | - |
| 1787611380 | 18.89° C | - | 1015.8 hPa | 0 mm | - | - | - |
| 1787611016 | 18.33° C | - | 1016 hPa | 0 mm | - | - | - |
| 1787610652 | 17.78° C | - | 1016.2 hPa | 0 mm | - | - | - |
* Rain latest hour (hover to see other rain measurements)
** Current wind speed in m/s (hover to see current wind gust speed)